Lid_Strength_Index
4 6 8 7 11 13 15 14 12 11 10 9 9 9 9 10 10 13 10 5 2 2 1 -0 -1 -1 -1 -1 -1 -1 -1 -1 -1 -1 -1 -1 -1 -1 -1 -1 -1 -1 -1 -1 -1 -1 -1 -1 -1
5 7 7 10 13 17 16 14 13 10 9 11 11 11 12 11 12 12 7 4 3 3 2 1 -1 -1 -1 -1 -1 -1 -1 -1 -1 -1 -1 -1 -1 -1 -1 -1 -1 -1 -1 -1 -1 -1 -1 -1 -1
9 7 9 10 14 16 17 14 12 10 9 10 11 12 12 12 13 12 10 5 5 3 3 1 -1 -1 -1 -1 -1 -1 -1 -1 -0 -1 -1 -1 -0 -0 -0 -0 -1 -1 -1 -1 -1 -1 -1 -1 -1
10 8 9 12 14 12 14 13 10 10 9 9 10 12 14 12 12 11 6 6 6 5 4 1 -0 -1 -1 -0 0 0 1 1 1 2 1 1 1 2 2 1 1 0 1 1 1 0 -0 -1 -1
9 10 12 14 13 11 11 10 9 10 10 9 10 12 14 13 11 9 7 7 7 6 5 3 0 -0 -1 -1 -0 1 1 1 1 1 1 1 1 1 1 1 1 1 0 0 -0 -0 -1 -1 0
12 11 14 15 13 10 10 9 9 9 9 10 11 13 14 13 12 11 8 9 8 7 6 5 2 -0 -0 0 1 1 1 1 1 2 2 2 2 2 2 2 2 1 1 1 1 1 0 0 0
12 13 14 13 12 11 10 9 9 9 10 10 11 13 15 14 12 11 11 10 10 9 8 6 4 3 1 1 1 2 2 2 3 3 3 3 3 3 3 3 2 2 2 2 1 1 1 1 2
12 12 14 13 12 12 9 10 10 9 10 11 11 12 13 14 13 13 12 11 11 11 10 8 7 6 6 5 2 2 2 3 3 3 3 3 4 4 4 4 3 3 3 3 2 2 2 2 3
11 14 15 13 13 11 12 12 13 13 12 13 12 13 14 13 14 14 14 14 13 11 10 9 8 9 9 8 5 3 2 2 3 4 4 6 8 7 7 4 4 4 4 3 3 3 3 4 5
12 15 13 11 12 13 14 14 14 15 15 15 15 15 14 14 15 15 15 14 14 12 11 10 9 9 10 8 8 9 8 8 8 8 8 8 8 7 7 7 5 5 5 4 4 4 5 6 8
14 14 13 13 14 15 15 15 15 15 16 14 13 14 15 15 15 14 14 13 12 12 11 11 11 10 10 10 10 10 9 9 9 9 9 9 9 9 9 10 10 10 7 9 8 8 9 9 9
15 13 12 13 15 15 16 16 16 15 13 13 13 14 15 15 14 14 14 14 14 13 11 11 11 11 11 11 10 10 10 11 10 10 9 10 10 10 10 10 10 10 10 10 10 10 9 9 9
15 14 14 15 16 16 16 16 16 16 13 14 14 15 15 14 14 13 13 13 13 13 12 11 12 12 11 11 11 11 10 11 10 10 9 9 10 10 10 10 10 10 10 10 10 10 10 10 9
14 14 16 16 16 17 17 17 17 14 13 14 15 15 15 13 13 14 14 13 13 12 12 11 11 11 11 11 11 11 11 11 11 10 10 9 9 10 10 10 10 10 10 10 10 10 10 10 10
16 17 16 16 16 17 19 18 19 13 15 15 16 16 14 13 13 13 13 12 12 11 11 11 11 11 11 11 11 11 11 10 11 11 10 9 9 10 10 11 11 11 10 10 10 10 10 10 10
16 18 19 16 17 18 17 19 15 17 16 15 16 15 15 14 13 12 12 12 11 11 11 11 9 11 11 11 11 11 11 11 11 11 10 9 9 9 10 11 11 10 10 11 11 11 11 11 11
17 19 19 16 16 19 18 19 14 18 17 17 16 15 15 13 13 12 11 11 11 11 11 11 11 11 11 11 11 11 11 11 11 11 11 10 9 9 10 11 11 10 11 11 11 12 12 12 12
17 18 17 18 17 19 20 20 15 15 18 17 17 16 15 14 13 11 12 11 11 11 10 10 10 11 11 12 12 11 12 11 11 11 11 10 9 9 10 11 11 11 11 12 12 12 12 12 13
18 18 18 18 17 19 19 19 17 15 19 18 16 15 15 14 11 13 12 12 12 11 11 10 11 11 11 12 13 12 12 12 11 11 10 10 10 9 10 11 11 11 12 12 12 12 13 13 13
17 18 18 16 16 18 19 20 17 16 17 16 14 14 14 13 14 13 13 12 11 11 10 10 10 11 10 11 12 11 12 12 11 11 10 10 10 10 10 11 11 12 12 13 13 13 14 13 13
19 19 19 17 16 18 19 19 18 16 16 15 15 13 13 14 14 14 14 12 11 11 11 10 10 10 10 10 11 12 12 12 12 11 11 11 10 10 10 11 11 12 12 13 13 13 14 15 14
20 18 18 18 19 21 18 22 19 16 16 15 14 14 14 14 13 14 14 13 12 11 10 10 10 10 10 10 11 12 12 13 12 11 11 11 11 11 10 10 11 12 12 13 14 13 14 14 15
19 17 17 18 20 21 22 21 21 18 17 15 14 15 14 13 14 14 14 13 12 11 11 11 10 11 10 10 10 11 12 12 12 12 12 12 12 11 10 11 12 12 13 13 14 14 14 14 14
16 17 17 18 20 25 21 20 19 18 16 15 15 14 14 14 15 14 14 13 13 12 12 11 12 12 11 11 11 11 12 13 13 13 13 13 12 11 11 11 12 13 13 13 14 14 14 14 14
19 19 24 26 27 24 22 21 20 16 14 14 13 13 14 14 15 15 15 14 13 13 13 12 12 12 12 11 11 12 12 13 13 13 13 13 13 13 12 12 13 13 13 13 13 14 14 14 14
20 21 22 26 25 22 20 23 19 15 14 13 13 13 13 15 15 15 15 15 14 14 13 12 12 12 12 12 12 12 12 12 12 12 13 12 12 13 12 13 13 13 13 13 13 14 14 14 14
20 22 20 22 26 25 21 20 17 15 14 14 13 14 14 14 14 14 15 15 15 14 13 12 12 12 12 12 12 12 12 12 12 13 12 12 13 12 13 13 13 13 13 13 14 14 14 14 14
19 18 21 23 28 29 23 22 21 17 16 15 15 15 15 15 14 14 14 14 14 14 13 13 12 12 12 12 12 12 12 13 13 13 12 12 12 12 13 13 13 14 14 14 14 14 14 14 15
21 21 21 21 21 24 25 21 18 17 17 15 16 16 16 16 15 15 15 15 15 14 14 13 13 13 13 12 12 13 13 13 12 12 12 12 13 13 13 13 13 14 14 14 14 14 15 15 15
20 20 20 23 24 22 21 20 16 16 15 16 16 15 16 15 15 16 15 15 15 14 14 13 13 13 12 12 13 12 12 12 12 12 13 13 13 13 13 13 14 14 14 14 15 15 15 15 16